QTR339 OTHH-UUEE

Flight info

Callsign QTR339
Flight time 4h 24m
Altitude 37000
Route ALVEN P430 BONAN P550 LAGSA R659 SYZ/N0499F360 P574 PEKAM L124 EGVEL P574 SAV N72 PAXID/N0489F380 N72 BAKUV N39 LASKA/K0915F380 N50 OLOPI OLOPI3G
Aircraft B78X/H-SDE1E2E3FGHIJ2J3J4J5M1RWXY/LB1D1

Departure

Time 2026-05-05 13:48
Airport Hamad International Airport (OTHH)

Arrival

Time 2026-05-05 18:13
Airport Sheremetyevo International Airport (UUEE)
Time Latitude Longitude Altitude Speed Heading
2026-05-05 12:47 25.26539 51.61291 28 ft 0 kts 248°
2026-05-05 13:34 25.26539 51.61293 28 ft 2 kts 248°
2026-05-05 13:34 25.26549 51.61318 27 ft 4 kts 248°
2026-05-05 13:34 25.26560 51.61345 27 ft 4 kts 236°
2026-05-05 13:35 25.26578 51.61366 25 ft 4 kts 209°
2026-05-05 13:35 25.26601 51.61374 26 ft 4 kts 165°
2026-05-05 13:35 25.26607 51.61372 25 ft 5 kts 158°
2026-05-05 13:40 25.26605 51.61373 28 ft 1 kts 158°
2026-05-05 13:40 25.26583 51.61382 28 ft 6 kts 159°
2026-05-05 13:40 25.26524 51.61408 28 ft 10 kts 159°
2026-05-05 13:41 25.26455 51.61438 28 ft 11 kts 158°
2026-05-05 13:41 25.26393 51.61481 28 ft 9 kts 120°
2026-05-05 13:41 25.26399 51.61544 28 ft 9 kts 70°
2026-05-05 13:41 25.26424 51.61614 28 ft 11 kts 68°
2026-05-05 13:42 25.26456 51.61702 28 ft 13 kts 68°
2026-05-05 13:42 25.26491 51.61793 28 ft 13 kts 67°
2026-05-05 13:42 25.26524 51.61884 28 ft 13 kts 69°
2026-05-05 13:42 25.26554 51.61970 27 ft 6 kts 69°
2026-05-05 13:43 25.26570 51.62018 27 ft 6 kts 74°
2026-05-05 13:43 25.26566 51.62035 27 ft 1 kts 112°
2026-05-05 13:43 25.26560 51.62038 27 ft 2 kts 141°
2026-05-05 13:43 25.26526 51.62058 27 ft 9 kts 154°
2026-05-05 13:44 25.26444 51.62095 28 ft 17 kts 158°
2026-05-05 13:44 25.26321 51.62150 28 ft 19 kts 159°
2026-05-05 13:44 25.26195 51.62204 29 ft 19 kts 158°
2026-05-05 13:44 25.26072 51.62260 29 ft 19 kts 157°
2026-05-05 13:45 25.25946 51.62315 28 ft 20 kts 158°
2026-05-05 13:45 25.25817 51.62372 28 ft 20 kts 158°
2026-05-05 13:45 25.25688 51.62430 28 ft 20 kts 158°
2026-05-05 13:45 25.25568 51.62483 28 ft 10 kts 158°
2026-05-05 13:46 25.25519 51.62505 28 ft 7 kts 156°
2026-05-05 13:46 25.25509 51.62518 28 ft 1 kts 119°
2026-05-05 13:46 25.25510 51.62525 28 ft 2 kts 94°
2026-05-05 13:46 25.25512 51.62543 28 ft 4 kts 80°
2026-05-05 13:47 25.25534 51.62598 28 ft 11 kts 63°
2026-05-05 13:47 25.25586 51.62654 29 ft 10 kts 21°
2026-05-05 13:47 25.25651 51.62648 28 ft 11 kts 342°
2026-05-05 13:47 25.25758 51.62601 28 ft 31 kts 338°
2026-05-05 13:48 25.26198 51.62406 29 ft 106 kts 338°
2026-05-05 13:48 25.27114 51.62003 28 ft 175 kts 339°
2026-05-05 13:48 25.28284 51.61461 708 ft 174 kts 336°
2026-05-05 13:48 25.29480 51.60959 1124 ft 197 kts 341°
2026-05-05 13:49 25.30784 51.60383 1778 ft 210 kts 339°
2026-05-05 13:49 25.32192 51.59753 2503 ft 225 kts 339°
2026-05-05 13:49 25.33707 51.59146 3153 ft 244 kts 349°
2026-05-05 13:49 25.35448 51.59346 3704 ft 265 kts 17°
2026-05-05 13:50 25.37180 51.60043 3975 ft 266 kts 21°
2026-05-05 13:50 25.38963 51.60749 3985 ft 267 kts 18°
2026-05-05 13:50 25.40761 51.61315 3985 ft 273 kts 15°
2026-05-05 13:50 25.42576 51.61837 3967 ft 269 kts 15°
2026-05-05 13:51 25.44391 51.62391 4247 ft 271 kts 16°
2026-05-05 13:51 25.46210 51.62965 5120 ft 271 kts 15°
2026-05-05 13:51 25.48063 51.63421 6297 ft 273 kts
2026-05-05 13:51 25.49922 51.63870 7398 ft 279 kts 12°
2026-05-05 13:52 25.51830 51.64380 8492 ft 284 kts 11°
2026-05-05 13:52 25.53780 51.64859 9596 ft 289 kts
2026-05-05 13:52 25.55780 51.65328 10503 ft 299 kts
2026-05-05 13:52 25.57845 51.65921 11219 ft 317 kts 22°
2026-05-05 13:53 25.59724 51.67285 11873 ft 337 kts 35°
2026-05-05 13:53 25.61592 51.68973 12491 ft 356 kts 38°
2026-05-05 13:53 25.63517 51.70804 13096 ft 372 kts 38°
2026-05-05 13:53 25.65534 51.72663 13878 ft 382 kts 37°
2026-05-05 13:54 25.67708 51.74413 14596 ft 389 kts 28°
2026-05-05 13:54 25.70091 51.75902 14939 ft 394 kts 27°
2026-05-05 13:54 25.72497 51.77381 14999 ft 397 kts 27°
2026-05-05 13:54 25.74889 51.78884 14923 ft 395 kts 28°
2026-05-05 13:55 25.77273 51.80403 14802 ft 394 kts 28°
2026-05-05 13:55 25.79643 51.81903 14761 ft 390 kts 28°
2026-05-05 13:55 25.82007 51.83388 14762 ft 391 kts 28°
2026-05-05 13:55 25.84370 51.84877 14766 ft 390 kts 28°
2026-05-05 13:56 25.86729 51.86370 14764 ft 391 kts 28°
2026-05-05 13:56 25.89095 51.87866 14765 ft 391 kts 27°
2026-05-05 13:56 25.91596 51.89003 14790 ft 388 kts 12°
2026-05-05 13:56 25.94195 51.89653 15252 ft 390 kts 11°
2026-05-05 13:57 25.96874 51.90284 16066 ft 395 kts 10°
2026-05-05 13:57 25.99581 51.90911 16874 ft 401 kts 10°
2026-05-05 13:57 26.02334 51.91574 17656 ft 408 kts 12°
2026-05-05 13:57 26.05006 51.92708 18373 ft 416 kts 25°
2026-05-05 13:58 26.07618 51.94144 19046 ft 422 kts 25°
2026-05-05 13:58 26.10264 51.95609 19722 ft 427 kts 24°
2026-05-05 13:58 26.12949 51.97085 20411 ft 433 kts 24°
2026-05-05 13:58 26.15667 51.98571 21083 ft 438 kts 24°
2026-05-05 13:59 26.21196 52.01608 22400 ft 447 kts 24°
2026-05-05 13:59 26.24004 52.03151 23037 ft 452 kts 24°
2026-05-05 14:00 26.29698 52.06280 24089 ft 462 kts 23°
2026-05-05 14:00 26.31617 52.07336 24412 ft 465 kts 23°
2026-05-05 14:00 26.34538 52.08945 24883 ft 470 kts 22°
2026-05-05 14:00 26.38451 52.11106 25496 ft 477 kts 22°
2026-05-05 14:01 26.41446 52.12762 25956 ft 482 kts 22°
2026-05-05 14:01 26.44461 52.14428 26413 ft 486 kts 22°
2026-05-05 14:01 26.46520 52.15567 26712 ft 490 kts 22°
2026-05-05 14:01 26.50585 52.17822 27297 ft 496 kts 22°
2026-05-05 14:02 26.52675 52.18982 27592 ft 499 kts 22°
2026-05-05 14:02 26.55757 52.20690 28010 ft 503 kts 21°
2026-05-05 14:02 26.58998 52.22098 28438 ft 498 kts 10°
2026-05-05 14:02 26.62382 52.22826 28877 ft 493 kts 359°
2026-05-05 14:03 26.65802 52.23057 29276 ft 494 kts 356°
2026-05-05 14:03 26.69245 52.23254 29662 ft 498 kts 356°
2026-05-05 14:03 26.72726 52.23439 30006 ft 502 kts 356°
2026-05-05 14:03 26.76229 52.23631 30322 ft 506 kts 356°
2026-05-05 14:04 26.79759 52.23837 30620 ft 510 kts 356°
2026-05-05 14:04 26.83311 52.24042 30928 ft 513 kts 356°
2026-05-05 14:04 26.86891 52.24242 31246 ft 516 kts 355°
2026-05-05 14:04 26.90498 52.24442 31533 ft 520 kts 355°
2026-05-05 14:05 26.94119 52.24648 31828 ft 523 kts 355°
2026-05-05 14:05 26.97764 52.24858 32174 ft 524 kts 355°
2026-05-05 14:05 27.01406 52.25066 32590 ft 524 kts 355°
2026-05-05 14:05 27.05047 52.25271 32992 ft 524 kts 355°
2026-05-05 14:06 27.08693 52.25477 33424 ft 524 kts 355°
2026-05-05 14:06 27.12333 52.25704 33823 ft 525 kts 355°
2026-05-05 14:06 27.15980 52.25950 34171 ft 525 kts 355°
2026-05-05 14:06 27.19625 52.26186 34525 ft 524 kts 355°
2026-05-05 14:07 27.23224 52.26407 34865 ft 525 kts 355°
2026-05-05 14:07 27.26921 52.26637 35199 ft 525 kts 355°
2026-05-05 14:07 27.30524 52.26870 35526 ft 526 kts 355°
2026-05-05 14:07 27.34176 52.27106 35872 ft 526 kts 355°
2026-05-05 14:08 27.37833 52.27338 36199 ft 526 kts 355°
2026-05-05 14:08 27.41500 52.27568 36527 ft 526 kts 355°
2026-05-05 14:08 27.45161 52.27802 36762 ft 527 kts 355°
2026-05-05 14:08 27.48811 52.28038 36782 ft 521 kts 355°
2026-05-05 14:09 27.55986 52.28493 36813 ft 520 kts 354°
2026-05-05 14:09 27.63214 52.28957 36857 ft 519 kts 354°
2026-05-05 14:10 27.70404 52.29416 36886 ft 519 kts 354°
2026-05-05 14:10 27.77621 52.29879 36902 ft 519 kts 354°
2026-05-05 14:11 27.84823 52.30341 36920 ft 520 kts 354°
2026-05-05 14:11 27.92044 52.30806 36912 ft 517 kts 354°
2026-05-05 14:12 27.99197 52.31263 36882 ft 522 kts 354°
2026-05-05 14:12 28.06422 52.31734 36844 ft 519 kts 354°
2026-05-05 14:13 28.13643 52.32196 36792 ft 519 kts 354°
2026-05-05 14:13 28.20862 52.32664 36789 ft 519 kts 354°
2026-05-05 14:14 28.28056 52.33129 36792 ft 519 kts 354°
2026-05-05 14:14 28.35263 52.33596 36793 ft 519 kts 354°
2026-05-05 14:15 28.42495 52.34065 36810 ft 519 kts 354°
2026-05-05 14:15 28.49654 52.34530 36822 ft 519 kts 354°
2026-05-05 14:16 28.56866 52.35301 36840 ft 529 kts
2026-05-05 14:16 28.64089 52.37029 36843 ft 530 kts
2026-05-05 14:17 28.71305 52.38777 36891 ft 530 kts
2026-05-05 14:17 28.78530 52.40512 36937 ft 531 kts
2026-05-05 14:18 28.85694 52.42251 36900 ft 529 kts
2026-05-05 14:18 28.92915 52.43991 36925 ft 530 kts
2026-05-05 14:19 29.00124 52.45742 36940 ft 530 kts
2026-05-05 14:19 29.07353 52.47493 36952 ft 531 kts
2026-05-05 14:20 29.14582 52.49251 36978 ft 530 kts
2026-05-05 14:20 29.21803 52.51007 36984 ft 531 kts
2026-05-05 14:21 29.29008 52.52764 37012 ft 530 kts
2026-05-05 14:21 29.36211 52.54522 36981 ft 528 kts
2026-05-05 14:22 29.43389 52.56274 36990 ft 529 kts
2026-05-05 14:22 29.50603 52.57819 37006 ft 517 kts 354°
2026-05-05 14:23 29.54160 52.57862 37111 ft 508 kts 345°
2026-05-05 14:23 29.57621 52.57318 37087 ft 494 kts 336°
2026-05-05 14:23 29.64103 52.55044 37081 ft 488 kts 332°
2026-05-05 14:24 29.70489 52.52622 37056 ft 487 kts 332°
2026-05-05 14:24 29.76928 52.50161 37036 ft 487 kts 332°
2026-05-05 14:25 29.83345 52.47719 37002 ft 487 kts 331°
2026-05-05 14:25 29.89774 52.45259 37007 ft 487 kts 331°
2026-05-05 14:26 29.96210 52.42799 37002 ft 488 kts 331°
2026-05-05 14:26 30.02639 52.40337 37008 ft 485 kts 331°
2026-05-05 14:27 30.09052 52.37875 37019 ft 486 kts 331°
2026-05-05 14:27 30.15430 52.35426 37041 ft 486 kts 331°
2026-05-05 14:28 30.21817 52.32971 37027 ft 485 kts 331°
2026-05-05 14:28 30.28241 52.30494 37028 ft 485 kts 331°
2026-05-05 14:29 30.34662 52.28018 37041 ft 486 kts 331°
2026-05-05 14:29 30.41092 52.25533 37049 ft 488 kts 331°
2026-05-05 14:30 30.47521 52.23051 37050 ft 484 kts 331°
2026-05-05 14:30 30.53928 52.20562 37053 ft 488 kts 331°
2026-05-05 14:31 30.60364 52.18073 37059 ft 487 kts 331°
2026-05-05 14:31 30.66737 52.15592 37054 ft 486 kts 331°
2026-05-05 14:32 30.73165 52.13080 37054 ft 486 kts 331°
2026-05-05 14:32 30.79593 52.10565 37057 ft 488 kts 331°
2026-05-05 14:33 30.86019 52.08050 37058 ft 488 kts 331°
2026-05-05 14:33 30.92450 52.05528 37054 ft 488 kts 331°
2026-05-05 14:34 30.98854 52.03011 37054 ft 490 kts 331°
2026-05-05 14:34 31.05322 52.00469 37052 ft 490 kts 331°
2026-05-05 14:35 31.11778 51.97925 37052 ft 490 kts 331°
2026-05-05 14:35 31.18245 51.95374 37038 ft 490 kts 332°
2026-05-05 14:36 31.24708 51.92821 37037 ft 490 kts 331°
2026-05-05 14:36 31.31149 51.90273 37039 ft 489 kts 331°
2026-05-05 14:37 31.37590 51.87722 37027 ft 487 kts 332°
2026-05-05 14:37 31.43983 51.85183 37022 ft 488 kts 332°
2026-05-05 14:38 31.50415 51.82628 37017 ft 489 kts 332°
2026-05-05 14:38 31.56884 51.80052 37013 ft 490 kts 332°
2026-05-05 14:39 31.63326 51.77486 37001 ft 492 kts 332°
2026-05-05 14:39 31.69807 51.74898 36979 ft 490 kts 332°
2026-05-05 14:40 31.76247 51.72324 36971 ft 492 kts 332°
2026-05-05 14:40 31.82718 51.69743 36964 ft 491 kts 331°
2026-05-05 14:41 31.89165 51.67160 36943 ft 487 kts 332°
2026-05-05 14:41 31.95642 51.64560 36939 ft 491 kts 332°
2026-05-05 14:42 32.02106 51.61969 36939 ft 493 kts 332°
2026-05-05 14:42 32.08582 51.59366 36935 ft 490 kts 332°
2026-05-05 14:43 32.15034 51.56766 36917 ft 491 kts 332°
2026-05-05 14:43 32.21465 51.54175 36916 ft 490 kts 332°
2026-05-05 14:44 32.27915 51.51569 36915 ft 491 kts 332°
2026-05-05 14:44 32.34402 51.48947 36904 ft 492 kts 332°
2026-05-05 14:45 32.40877 51.46324 36888 ft 492 kts 332°
2026-05-05 14:45 32.47362 51.43693 36889 ft 492 kts 332°
2026-05-05 14:46 32.53818 51.41071 36888 ft 491 kts 332°
2026-05-05 14:46 32.60283 51.38438 36889 ft 492 kts 332°
2026-05-05 14:47 32.66768 51.35795 36889 ft 492 kts 332°
2026-05-05 14:47 32.73257 51.33144 36886 ft 491 kts 332°
2026-05-05 14:48 32.79704 51.30505 36888 ft 495 kts 332°
2026-05-05 14:48 32.86172 51.27862 36908 ft 491 kts 332°
2026-05-05 14:49 32.92610 51.25220 36911 ft 491 kts 332°
2026-05-05 14:49 32.99090 51.22562 36916 ft 491 kts 332°
2026-05-05 14:50 33.05517 51.19918 36901 ft 493 kts 332°
2026-05-05 14:50 33.12015 51.17244 36911 ft 493 kts 332°
2026-05-05 14:51 33.18483 51.14577 36914 ft 493 kts 332°
2026-05-05 14:51 33.24971 51.11896 36927 ft 493 kts 332°
2026-05-05 14:52 33.30375 51.09663 36935 ft 493 kts 332°
2026-05-05 14:52 33.36873 51.06970 36940 ft 493 kts 332°
2026-05-05 14:53 33.43334 51.04293 36940 ft 491 kts 332°
2026-05-05 14:53 33.49793 51.01606 36938 ft 491 kts 332°
2026-05-05 14:54 33.56240 50.98921 36938 ft 491 kts 332°
2026-05-05 14:54 33.62677 50.96237 36932 ft 490 kts 332°
2026-05-05 14:55 33.69127 50.93542 36931 ft 491 kts 332°
2026-05-05 14:55 33.75540 50.90858 36925 ft 492 kts 332°
2026-05-05 14:56 33.82020 50.88143 36922 ft 493 kts 332°
2026-05-05 14:56 33.88491 50.85426 36919 ft 494 kts 332°
2026-05-05 14:57 33.94995 50.82691 36913 ft 495 kts 332°
2026-05-05 14:57 34.01489 50.79958 36915 ft 494 kts 332°
2026-05-05 14:58 34.07994 50.77212 36909 ft 494 kts 332°
2026-05-05 14:58 34.14509 50.74461 36900 ft 494 kts 332°
2026-05-05 14:59 34.20999 50.71714 36892 ft 494 kts 332°
2026-05-05 14:59 34.27440 50.68983 36875 ft 496 kts 332°
2026-05-05 15:00 34.32909 50.66662 36868 ft 495 kts 332°
2026-05-05 15:00 34.40451 50.63454 36858 ft 495 kts 332°
2026-05-05 15:01 34.46967 50.60678 36855 ft 496 kts 332°
2026-05-05 15:01 34.53475 50.57903 36856 ft 495 kts 332°
2026-05-05 15:02 34.59947 50.55135 36893 ft 496 kts 332°
2026-05-05 15:02 34.66475 50.52341 36846 ft 498 kts 332°
2026-05-05 15:03 34.73006 50.49541 36857 ft 498 kts 332°
2026-05-05 15:03 34.79527 50.46746 36853 ft 498 kts 332°
2026-05-05 15:04 34.86075 50.43934 36856 ft 497 kts 332°
2026-05-05 15:04 34.92607 50.41123 36864 ft 498 kts 332°
2026-05-05 15:05 35.02597 50.37351 36884 ft 512 kts 345°
2026-05-05 15:06 35.09801 50.36938 36886 ft 519 kts 351°
2026-05-05 15:06 35.17029 50.36758 36896 ft 519 kts 351°
2026-05-05 15:07 35.24257 50.36573 36913 ft 519 kts 351°
2026-05-05 15:07 35.31486 50.36388 36916 ft 519 kts 351°
2026-05-05 15:08 35.38688 50.36203 36920 ft 522 kts 351°
2026-05-05 15:08 35.45960 50.36018 36929 ft 523 kts 351°
2026-05-05 15:09 35.53235 50.35831 36933 ft 524 kts 351°
2026-05-05 15:09 35.60539 50.35653 36940 ft 524 kts 351°
2026-05-05 15:10 35.67837 50.35475 36941 ft 523 kts 351°
2026-05-05 15:10 35.75135 50.35289 36948 ft 525 kts 351°
2026-05-05 15:11 35.82394 50.35106 37015 ft 525 kts 351°
2026-05-05 15:11 35.86086 50.35013 37367 ft 525 kts 351°
2026-05-05 15:11 35.89689 50.34921 37713 ft 525 kts 351°
2026-05-05 15:11 35.93344 50.34828 38064 ft 524 kts 351°
2026-05-05 15:12 35.96995 50.34735 38402 ft 524 kts 350°
2026-05-05 15:12 36.00688 50.34639 38709 ft 524 kts 350°
2026-05-05 15:12 36.04301 50.34545 38969 ft 524 kts 350°
2026-05-05 15:12 36.07948 50.34450 39222 ft 525 kts 350°
2026-05-05 15:13 36.11611 50.34354 39493 ft 525 kts 350°
2026-05-05 15:13 36.15271 50.34260 39743 ft 525 kts 350°
2026-05-05 15:13 36.18875 50.34166 39989 ft 525 kts 350°
2026-05-05 15:13 36.22538 50.34070 40231 ft 525 kts 350°
2026-05-05 15:14 36.26204 50.33974 40489 ft 526 kts 350°
2026-05-05 15:14 36.29873 50.33876 40743 ft 526 kts 350°
2026-05-05 15:14 36.33496 50.33735 40951 ft 525 kts 349°
2026-05-05 15:15 36.40755 50.33404 40976 ft 514 kts 349°
2026-05-05 15:15 36.47894 50.33124 40985 ft 517 kts 349°
2026-05-05 15:16 36.55038 50.32825 40976 ft 513 kts 349°
2026-05-05 15:16 36.62227 50.32532 40975 ft 516 kts 349°
2026-05-05 15:17 36.69350 50.32241 40970 ft 512 kts 350°
2026-05-05 15:17 36.76537 50.31937 40978 ft 517 kts 349°
2026-05-05 15:18 36.83704 50.31649 41000 ft 517 kts 349°
2026-05-05 15:18 36.90921 50.31346 40970 ft 516 kts 349°
2026-05-05 15:19 36.98083 50.31051 40965 ft 515 kts 349°
2026-05-05 15:19 37.05221 50.30752 40958 ft 516 kts 350°
2026-05-05 15:20 37.12393 50.30328 40955 ft 513 kts 348°
2026-05-05 15:20 37.19511 50.29874 40955 ft 514 kts 349°
2026-05-05 15:21 37.26712 50.29450 40961 ft 516 kts 349°
2026-05-05 15:21 37.33861 50.29000 40961 ft 517 kts 349°
2026-05-05 15:22 37.41073 50.28565 40946 ft 518 kts 349°
2026-05-05 15:22 37.48275 50.28117 40948 ft 519 kts 349°
2026-05-05 15:23 37.55447 50.27678 40949 ft 518 kts 349°
2026-05-05 15:23 37.62686 50.27228 40954 ft 520 kts 349°
2026-05-05 15:24 37.69888 50.26785 40955 ft 520 kts 349°
2026-05-05 15:24 37.77123 50.26336 40940 ft 517 kts 349°
2026-05-05 15:25 37.84275 50.25890 40941 ft 517 kts 349°
2026-05-05 15:25 37.91492 50.25441 40937 ft 518 kts 349°
2026-05-05 15:26 37.98676 50.24994 40942 ft 518 kts 349°
2026-05-05 15:26 38.05849 50.24547 40939 ft 517 kts 349°
2026-05-05 15:27 38.13077 50.24094 40947 ft 518 kts 349°
2026-05-05 15:27 38.20269 50.23647 40941 ft 519 kts 350°
2026-05-05 15:28 38.27494 50.23215 40938 ft 518 kts 350°
2026-05-05 15:28 38.34673 50.22772 40949 ft 519 kts 350°
2026-05-05 15:29 38.41865 50.22337 40957 ft 519 kts 350°
2026-05-05 15:29 38.49114 50.21892 40984 ft 520 kts 350°
2026-05-05 15:30 38.56336 50.21450 40951 ft 521 kts 350°
2026-05-05 15:30 38.63598 50.21005 40949 ft 520 kts 350°
2026-05-05 15:31 38.70790 50.20562 40951 ft 519 kts 351°
2026-05-05 15:31 38.78040 50.20115 40955 ft 521 kts 351°
2026-05-05 15:32 38.85242 50.19670 40961 ft 521 kts 351°
2026-05-05 15:32 38.92524 50.19219 40960 ft 522 kts 351°
2026-05-05 15:33 38.99742 50.18773 40961 ft 521 kts 351°
2026-05-05 15:33 39.07002 50.18320 40965 ft 521 kts 351°
2026-05-05 15:34 39.14231 50.17870 40958 ft 523 kts 351°
2026-05-05 15:34 39.21524 50.17417 40946 ft 520 kts 351°
2026-05-05 15:35 39.28731 50.16962 40958 ft 524 kts 351°
2026-05-05 15:35 39.36007 50.16511 40961 ft 523 kts 351°
2026-05-05 15:36 39.43307 50.16050 40960 ft 522 kts 351°
2026-05-05 15:36 39.50549 50.15594 40975 ft 524 kts 351°
2026-05-05 15:37 39.57824 50.15137 40976 ft 525 kts 351°
2026-05-05 15:37 39.65115 50.14675 40966 ft 525 kts 351°
2026-05-05 15:38 39.72388 50.14216 40969 ft 522 kts 351°
2026-05-05 15:38 39.79632 50.13754 40957 ft 522 kts 351°
2026-05-05 15:39 39.86872 50.12883 40973 ft 524 kts 348°
2026-05-05 15:39 39.94112 50.11966 40957 ft 522 kts 348°
2026-05-05 15:40 40.00143 50.11186 40963 ft 521 kts 348°
2026-05-05 15:40 40.07347 50.10256 40977 ft 524 kts 348°
2026-05-05 15:41 40.14635 50.09320 40973 ft 523 kts 348°
2026-05-05 15:41 40.21846 50.08385 40967 ft 522 kts 348°
2026-05-05 15:42 40.29101 50.07444 40975 ft 523 kts 348°
2026-05-05 15:42 40.36329 50.06507 40973 ft 524 kts 348°
2026-05-05 15:43 40.43572 50.05563 40993 ft 525 kts 349°
2026-05-05 15:43 40.50881 50.04879 40958 ft 526 kts 352°
2026-05-05 15:44 40.58189 50.04454 40966 ft 525 kts 352°
2026-05-05 15:44 40.65505 50.04034 40973 ft 525 kts 352°
2026-05-05 15:45 40.72767 50.03615 40968 ft 525 kts 352°
2026-05-05 15:45 40.80086 50.03191 40968 ft 524 kts 352°
2026-05-05 15:46 40.87398 50.02766 40982 ft 526 kts 352°
2026-05-05 15:46 40.94688 50.02343 40978 ft 526 kts 353°
2026-05-05 15:47 41.02035 50.01915 40980 ft 527 kts 353°
2026-05-05 15:47 41.09331 50.01489 40973 ft 528 kts 353°
2026-05-05 15:48 41.16547 50.00257 40992 ft 516 kts 338°
2026-05-05 15:48 41.23453 49.97772 40984 ft 517 kts 339°
2026-05-05 15:49 41.30401 49.95246 40979 ft 517 kts 339°
2026-05-05 15:49 41.37359 49.92722 40980 ft 516 kts 339°
2026-05-05 15:50 41.44258 49.90208 41002 ft 517 kts 339°
2026-05-05 15:50 41.51232 49.87665 40979 ft 518 kts 339°
2026-05-05 15:51 41.58174 49.85126 40982 ft 519 kts 339°
2026-05-05 15:51 41.65146 49.82572 40968 ft 516 kts 339°
2026-05-05 15:52 41.72064 49.80030 40965 ft 516 kts 339°
2026-05-05 15:52 41.78960 49.77491 40965 ft 516 kts 339°
2026-05-05 15:53 41.85912 49.74926 40983 ft 518 kts 339°
2026-05-05 15:53 41.92837 49.72366 40969 ft 518 kts 339°
2026-05-05 15:54 41.99740 49.69809 40972 ft 515 kts 339°
2026-05-05 15:54 42.06671 49.67232 40978 ft 516 kts 339°
2026-05-05 15:55 42.13595 49.64655 40975 ft 517 kts 339°
2026-05-05 15:55 42.20546 49.62061 41003 ft 517 kts 339°
2026-05-05 15:56 42.27503 49.59461 40965 ft 516 kts 339°
2026-05-05 15:56 42.34386 49.56880 40957 ft 515 kts 339°
2026-05-05 15:57 42.41024 49.53565 41001 ft 507 kts 326°
2026-05-05 15:57 42.47310 49.49173 40966 ft 507 kts 327°
2026-05-05 15:58 42.53601 49.44749 40966 ft 507 kts 327°
2026-05-05 15:58 42.59841 49.40362 40970 ft 508 kts 327°
2026-05-05 15:59 42.66117 49.35936 40977 ft 507 kts 327°
2026-05-05 15:59 42.72370 49.31515 40965 ft 507 kts 327°
2026-05-05 16:00 42.78609 49.27095 40972 ft 508 kts 327°
2026-05-05 16:00 42.84895 49.22633 40972 ft 508 kts 327°
2026-05-05 16:01 42.91137 49.18190 40971 ft 509 kts 327°
2026-05-05 16:01 42.97425 49.13704 40972 ft 510 kts 327°
2026-05-05 16:02 43.03716 49.09207 40968 ft 510 kts 327°
2026-05-05 16:02 43.10012 49.04695 40969 ft 510 kts 327°
2026-05-05 16:03 43.16272 49.00198 40959 ft 508 kts 327°
2026-05-05 16:03 43.22503 48.95712 40953 ft 507 kts 327°
2026-05-05 16:04 43.28745 48.91206 40950 ft 508 kts 327°
2026-05-05 16:04 43.35021 48.86666 40966 ft 509 kts 327°
2026-05-05 16:05 43.41297 48.82116 40963 ft 510 kts 327°
2026-05-05 16:05 43.47546 48.77575 40962 ft 509 kts 327°
2026-05-05 16:06 43.53775 48.73036 40963 ft 508 kts 327°
2026-05-05 16:06 43.60021 48.68476 40944 ft 508 kts 327°
2026-05-05 16:07 43.66275 48.63898 40967 ft 507 kts 327°
2026-05-05 16:07 43.72495 48.59334 40958 ft 509 kts 327°
2026-05-05 16:08 43.78774 48.54717 40960 ft 509 kts 327°
2026-05-05 16:08 43.85008 48.50121 40955 ft 510 kts 328°
2026-05-05 16:09 43.91241 48.45516 40956 ft 508 kts 328°
2026-05-05 16:09 43.97498 48.40880 40942 ft 507 kts 328°
2026-05-05 16:10 44.03695 48.36279 40954 ft 507 kts 328°
2026-05-05 16:10 44.09950 48.31623 40946 ft 508 kts 328°
2026-05-05 16:11 44.16184 48.26973 40946 ft 507 kts 328°
2026-05-05 16:12 44.28577 48.17693 40947 ft 508 kts 328°
2026-05-05 16:13 44.44421 48.06641 40945 ft 510 kts 332°
2026-05-05 16:13 44.50828 48.02446 40946 ft 509 kts 332°
2026-05-05 16:14 44.63627 47.93996 40941 ft 507 kts 332°
2026-05-05 16:15 44.76394 47.85525 40937 ft 508 kts 332°
2026-05-05 16:16 44.89154 47.77015 40935 ft 507 kts 332°
2026-05-05 16:17 44.98696 47.70623 40935 ft 507 kts 332°
2026-05-05 16:18 45.08229 47.64213 40930 ft 507 kts 332°
2026-05-05 16:19 45.17805 47.57750 40936 ft 507 kts 332°
2026-05-05 16:19 45.27357 47.51280 40934 ft 507 kts 332°
2026-05-05 16:20 45.40063 47.42635 40934 ft 506 kts 332°
2026-05-05 16:22 45.55911 47.31791 40918 ft 506 kts 332°
2026-05-05 16:23 45.68587 47.23054 40932 ft 507 kts 332°
2026-05-05 16:23 45.78105 47.16343 40936 ft 508 kts 332°
2026-05-05 16:24 45.84425 47.11898 40932 ft 508 kts 332°
2026-05-05 16:25 45.93885 47.05124 40930 ft 506 kts 328°
2026-05-05 16:25 46.02192 46.98731 40932 ft 508 kts 330°
2026-05-05 16:26 46.14567 46.89103 40926 ft 505 kts 329°
2026-05-05 16:27 46.20795 46.84319 40931 ft 507 kts 335°
2026-05-05 16:27 46.27174 46.80028 40930 ft 507 kts 333°
2026-05-05 16:28 46.33592 46.75672 40929 ft 508 kts 333°
2026-05-05 16:28 46.39990 46.71343 40933 ft 508 kts 333°
2026-05-05 16:29 46.46346 46.67011 40928 ft 505 kts 333°
2026-05-05 16:29 46.52671 46.62703 40929 ft 505 kts 333°
2026-05-05 16:30 46.59057 46.58333 40927 ft 505 kts 333°
2026-05-05 16:30 46.65398 46.53988 40918 ft 504 kts 333°
2026-05-05 16:31 46.71715 46.49645 40923 ft 503 kts 333°
2026-05-05 16:31 46.78065 46.45270 40919 ft 504 kts 333°
2026-05-05 16:32 46.84378 46.40908 40923 ft 504 kts 333°
2026-05-05 16:32 46.90717 46.36517 40926 ft 504 kts 333°
2026-05-05 16:33 46.96959 46.32181 40928 ft 505 kts 333°
2026-05-05 16:33 47.03350 46.27731 40939 ft 505 kts 333°
2026-05-05 16:34 47.09680 46.23307 40932 ft 504 kts 333°
2026-05-05 16:34 47.16018 46.18859 40929 ft 504 kts 333°
2026-05-05 16:35 47.22334 46.14420 40933 ft 503 kts 333°
2026-05-05 16:35 47.28634 46.09976 40935 ft 503 kts 334°
2026-05-05 16:36 47.34955 46.05508 40926 ft 503 kts 333°
2026-05-05 16:36 47.41260 46.01041 40931 ft 504 kts 334°
2026-05-05 16:37 47.47577 45.96577 40931 ft 505 kts 334°
2026-05-05 16:37 47.53908 45.92080 40937 ft 505 kts 334°
2026-05-05 16:38 47.60235 45.87579 40942 ft 505 kts 334°
2026-05-05 16:38 47.66581 45.83050 40942 ft 505 kts 333°
2026-05-05 16:39 47.72866 45.78553 40950 ft 504 kts 334°
2026-05-05 16:39 47.79203 45.74007 40942 ft 503 kts 333°
2026-05-05 16:40 47.85463 45.69504 40944 ft 503 kts 333°
2026-05-05 16:40 47.91784 45.64944 40945 ft 503 kts 334°
2026-05-05 16:41 47.98083 45.60388 40942 ft 504 kts 334°
2026-05-05 16:41 48.04379 45.55821 40945 ft 504 kts 334°
2026-05-05 16:42 48.10663 45.51251 40956 ft 504 kts 333°
2026-05-05 16:42 48.16970 45.46652 40957 ft 502 kts 334°
2026-05-05 16:43 48.23254 45.42057 40955 ft 502 kts 333°
2026-05-05 16:43 48.29529 45.37456 40946 ft 501 kts 333°
2026-05-05 16:44 48.35784 45.32856 40953 ft 500 kts 333°
2026-05-05 16:44 48.41783 45.27773 40983 ft 499 kts 321°
2026-05-05 16:45 48.47292 45.21351 40952 ft 500 kts 321°
2026-05-05 16:45 48.52779 45.14917 40964 ft 500 kts 322°
2026-05-05 16:46 48.58271 45.08490 40964 ft 499 kts 321°
2026-05-05 16:46 48.63749 45.02033 40967 ft 498 kts 321°
2026-05-05 16:47 48.69209 44.95600 40967 ft 498 kts 321°
2026-05-05 16:47 48.74650 44.89158 40964 ft 498 kts 321°
2026-05-05 16:48 48.80109 44.82684 40960 ft 497 kts 321°
2026-05-05 16:48 48.85488 44.76123 40973 ft 497 kts 319°
2026-05-05 16:49 48.90878 44.69487 40965 ft 499 kts 320°
2026-05-05 16:49 48.96216 44.62766 40971 ft 497 kts 320°
2026-05-05 16:50 49.01545 44.56088 40974 ft 497 kts 320°
2026-05-05 16:50 49.06877 44.49374 40975 ft 497 kts 320°
2026-05-05 16:51 49.12197 44.42654 40971 ft 496 kts 320°
2026-05-05 16:51 49.17509 44.35932 40974 ft 495 kts 320°
2026-05-05 16:52 49.22778 44.29238 40978 ft 496 kts 320°
2026-05-05 16:52 49.28092 44.22473 40980 ft 497 kts 320°
2026-05-05 16:53 49.33404 44.15687 40976 ft 494 kts 320°
2026-05-05 16:53 49.38675 44.08936 40973 ft 494 kts 319°
2026-05-05 16:54 49.43966 44.02138 40976 ft 495 kts 319°
2026-05-05 16:54 49.49244 43.95338 40976 ft 495 kts 319°
2026-05-05 16:55 49.54520 43.88528 40980 ft 495 kts 319°
2026-05-05 16:55 49.59809 43.81716 40981 ft 495 kts 319°
2026-05-05 16:56 49.65082 43.74886 40985 ft 495 kts 319°
2026-05-05 16:56 49.70358 43.68042 40983 ft 495 kts 319°
2026-05-05 16:57 49.75584 43.61238 40977 ft 494 kts 319°
2026-05-05 16:57 49.80834 43.54385 40975 ft 493 kts 319°
2026-05-05 16:58 49.86074 43.47524 40975 ft 493 kts 319°
2026-05-05 16:58 49.91317 43.40640 40982 ft 493 kts 319°
2026-05-05 16:59 49.96542 43.33758 40982 ft 492 kts 319°
2026-05-05 16:59 50.01759 43.26867 40981 ft 492 kts 319°
2026-05-05 17:00 50.06968 43.19966 40985 ft 493 kts 319°
2026-05-05 17:00 50.12192 43.13025 40985 ft 492 kts 319°
2026-05-05 17:01 50.17362 43.06134 40983 ft 492 kts 319°
2026-05-05 17:01 50.22557 42.99191 40978 ft 491 kts 319°
2026-05-05 17:02 50.27747 42.92232 40982 ft 492 kts 319°
2026-05-05 17:02 50.32927 42.85268 40980 ft 490 kts 319°
2026-05-05 17:03 50.38101 42.78290 40981 ft 491 kts 319°
2026-05-05 17:03 50.43277 42.71288 40982 ft 492 kts 319°
2026-05-05 17:04 50.48459 42.64257 40975 ft 490 kts 318°
2026-05-05 17:04 50.53621 42.57280 40972 ft 489 kts 323°
2026-05-05 17:05 50.59259 42.51200 40975 ft 492 kts 325°
2026-05-05 17:05 50.64879 42.45186 40978 ft 491 kts 325°
2026-05-05 17:06 50.70528 42.39119 40975 ft 490 kts 325°
2026-05-05 17:06 50.76159 42.33057 40975 ft 489 kts 325°
2026-05-05 17:07 50.81777 42.26989 40975 ft 489 kts 325°
2026-05-05 17:07 50.87400 42.20899 40976 ft 489 kts 325°
2026-05-05 17:08 50.93008 42.14805 40972 ft 488 kts 324°
2026-05-05 17:08 50.98606 42.08706 40970 ft 488 kts 324°
2026-05-05 17:09 51.04217 42.02573 40968 ft 489 kts 324°
2026-05-05 17:09 51.09828 41.96424 40959 ft 490 kts 324°
2026-05-05 17:10 51.15365 41.90335 40950 ft 486 kts 324°
2026-05-05 17:10 51.20933 41.84194 40951 ft 487 kts 324°
2026-05-05 17:11 51.26509 41.78027 40954 ft 488 kts 324°
2026-05-05 17:11 51.32090 41.71836 40956 ft 488 kts 324°
2026-05-05 17:12 51.37645 41.65654 40957 ft 486 kts 324°
2026-05-05 17:12 51.43196 41.59459 40951 ft 486 kts 324°
2026-05-05 17:13 51.48717 41.53278 40954 ft 487 kts 324°
2026-05-05 17:13 51.54267 41.47046 40954 ft 487 kts 324°
2026-05-05 17:14 51.58886 41.41845 40952 ft 487 kts 324°
2026-05-05 17:14 51.65378 41.34513 40955 ft 488 kts 323°
2026-05-05 17:15 51.70929 41.28225 40955 ft 487 kts 323°
2026-05-05 17:15 51.76452 41.21952 40949 ft 485 kts 323°
2026-05-05 17:16 51.81036 41.16729 40949 ft 484 kts 323°
2026-05-05 17:16 51.87429 41.09425 40952 ft 484 kts 323°
2026-05-05 17:17 51.92041 41.04139 40945 ft 485 kts 323°
2026-05-05 17:17 51.97556 40.97800 40949 ft 485 kts 323°
2026-05-05 17:18 52.03034 40.91485 40943 ft 482 kts 323°
2026-05-05 17:18 52.08809 40.85887 40950 ft 485 kts 329°
2026-05-05 17:19 52.14682 40.80460 40943 ft 485 kts 329°
2026-05-05 17:19 52.20522 40.75094 40941 ft 485 kts 329°
2026-05-05 17:20 52.26391 40.69657 40946 ft 485 kts 329°
2026-05-05 17:20 52.32268 40.64212 40945 ft 484 kts 329°
2026-05-05 17:21 52.38132 40.58752 40942 ft 484 kts 329°
2026-05-05 17:22 52.46875 40.50580 40936 ft 484 kts 328°
2026-05-05 17:22 52.52724 40.45099 40936 ft 484 kts 329°
2026-05-05 17:23 52.58580 40.39647 40935 ft 483 kts 329°
2026-05-05 17:23 52.61498 40.36912 40764 ft 482 kts 328°
2026-05-05 17:23 52.64409 40.34177 40520 ft 480 kts 329°
2026-05-05 17:23 52.67304 40.31459 40281 ft 478 kts 329°
2026-05-05 17:24 52.70193 40.28745 40031 ft 477 kts 329°
2026-05-05 17:24 52.73077 40.26028 39779 ft 476 kts 329°
2026-05-05 17:24 52.75948 40.23318 39530 ft 474 kts 329°
2026-05-05 17:24 52.78773 40.20648 39292 ft 473 kts 329°
2026-05-05 17:25 52.81663 40.17915 39029 ft 472 kts 329°
2026-05-05 17:25 52.83547 40.16130 38867 ft 471 kts 329°
2026-05-05 17:25 52.87311 40.12558 38508 ft 470 kts 329°
2026-05-05 17:25 52.90144 40.09866 38189 ft 469 kts 329°
2026-05-05 17:26 52.92974 40.07174 37889 ft 468 kts 329°
2026-05-05 17:26 52.95794 40.04485 37550 ft 468 kts 329°
2026-05-05 17:26 52.98615 40.01791 37224 ft 467 kts 329°
2026-05-05 17:26 53.01428 39.99102 36895 ft 467 kts 329°
2026-05-05 17:27 53.04236 39.96414 36565 ft 466 kts 329°
2026-05-05 17:27 53.07047 39.93718 36210 ft 466 kts 329°
2026-05-05 17:27 53.09859 39.91017 35859 ft 466 kts 329°
2026-05-05 17:27 53.12670 39.88312 35516 ft 466 kts 329°
2026-05-05 17:28 53.15480 39.85606 35154 ft 467 kts 329°
2026-05-05 17:28 53.18283 39.82902 34824 ft 467 kts 329°
2026-05-05 17:28 53.21097 39.80183 34581 ft 465 kts 329°
2026-05-05 17:28 53.23892 39.77477 34359 ft 464 kts 329°
2026-05-05 17:29 53.26651 39.74803 34138 ft 464 kts 329°
2026-05-05 17:29 53.29445 39.72091 33974 ft 464 kts 329°
2026-05-05 17:29 53.32233 39.69381 33834 ft 465 kts 329°
2026-05-05 17:29 53.35038 39.66650 33669 ft 464 kts 329°
2026-05-05 17:30 53.37829 39.63927 33516 ft 465 kts 329°
2026-05-05 17:30 53.40625 39.61197 33350 ft 465 kts 329°
2026-05-05 17:30 53.43507 39.58705 33223 ft 466 kts 332°
2026-05-05 17:30 53.46398 39.56259 33054 ft 467 kts 332°
2026-05-05 17:31 53.49297 39.53774 32894 ft 467 kts 332°
2026-05-05 17:31 53.52197 39.51314 32735 ft 467 kts 332°
2026-05-05 17:31 53.55103 39.48865 32579 ft 467 kts 332°
2026-05-05 17:31 53.58006 39.46403 32428 ft 467 kts 332°
2026-05-05 17:32 53.60873 39.43954 32274 ft 468 kts 332°
2026-05-05 17:32 53.63769 39.41482 32120 ft 468 kts 332°
2026-05-05 17:32 53.66671 39.39008 31970 ft 468 kts 332°
2026-05-05 17:32 53.69585 39.36520 31823 ft 468 kts 332°
2026-05-05 17:33 53.72481 39.34037 31677 ft 468 kts 332°
2026-05-05 17:33 53.75401 39.31530 31511 ft 468 kts 332°
2026-05-05 17:33 53.78301 39.29040 31363 ft 469 kts 332°
2026-05-05 17:33 53.81215 39.26535 31223 ft 469 kts 332°
2026-05-05 17:34 53.84120 39.24031 31073 ft 468 kts 331°
2026-05-05 17:34 53.87030 39.21517 30928 ft 469 kts 331°
2026-05-05 17:34 53.89935 39.19005 30777 ft 469 kts 331°
2026-05-05 17:34 53.92840 39.16486 30636 ft 469 kts 331°
2026-05-05 17:35 53.95746 39.13962 30487 ft 469 kts 331°
2026-05-05 17:35 53.98665 39.11424 30306 ft 469 kts 331°
2026-05-05 17:35 54.01526 39.08933 29635 ft 468 kts 331°
2026-05-05 17:35 54.04438 39.06392 28673 ft 469 kts 331°
2026-05-05 17:36 54.07323 39.03871 28299 ft 458 kts 331°
2026-05-05 17:36 54.10086 39.01455 28011 ft 446 kts 331°
2026-05-05 17:36 54.12815 38.99063 27849 ft 432 kts 331°
2026-05-05 17:36 54.15427 38.96770 27625 ft 421 kts 331°
2026-05-05 17:37 54.18015 38.94495 27306 ft 412 kts 331°
2026-05-05 17:37 54.20552 38.92261 27066 ft 406 kts 331°
2026-05-05 17:37 54.23049 38.90058 26911 ft 409 kts 331°
2026-05-05 17:37 54.25589 38.87848 26753 ft 408 kts 332°
2026-05-05 17:38 54.28116 38.85732 26605 ft 407 kts 332°
2026-05-05 17:38 54.30664 38.83594 26448 ft 406 kts 332°
2026-05-05 17:38 54.33193 38.81426 26298 ft 405 kts 332°
2026-05-05 17:38 54.35691 38.79277 26146 ft 404 kts 332°
2026-05-05 17:39 54.38218 38.77118 25983 ft 404 kts 332°
2026-05-05 17:39 54.40749 38.74959 25824 ft 404 kts 332°
2026-05-05 17:39 54.43243 38.72821 25683 ft 403 kts 332°
2026-05-05 17:39 54.45761 38.70655 25535 ft 402 kts 332°
2026-05-05 17:40 54.48246 38.68520 25398 ft 400 kts 331°
2026-05-05 17:40 54.50704 38.66404 25253 ft 398 kts 331°
2026-05-05 17:40 54.53190 38.64257 25100 ft 397 kts 331°
2026-05-05 17:40 54.55666 38.62115 24943 ft 397 kts 331°
2026-05-05 17:41 54.58115 38.59996 24802 ft 397 kts 331°
2026-05-05 17:41 54.60539 38.57896 24671 ft 397 kts 331°
2026-05-05 17:41 54.63021 38.55742 24522 ft 396 kts 331°
2026-05-05 17:41 54.65476 38.53608 24383 ft 395 kts 331°
2026-05-05 17:42 54.67942 38.51462 24239 ft 395 kts 331°
2026-05-05 17:42 54.70365 38.49350 24104 ft 394 kts 331°
2026-05-05 17:42 54.72829 38.47200 23944 ft 393 kts 331°
2026-05-05 17:42 54.75261 38.45084 23814 ft 392 kts 330°
2026-05-05 17:43 54.77690 38.42986 23692 ft 391 kts 330°
2026-05-05 17:43 54.80131 38.40873 23552 ft 391 kts 330°
2026-05-05 17:43 54.82539 38.38777 23411 ft 390 kts 330°
2026-05-05 17:43 54.84986 38.36644 23249 ft 390 kts 330°
2026-05-05 17:44 54.87385 38.34546 23078 ft 388 kts 329°
2026-05-05 17:44 54.89802 38.32409 22896 ft 387 kts 329°
2026-05-05 17:44 54.92186 38.30300 22742 ft 386 kts 329°
2026-05-05 17:44 54.94590 38.28177 22583 ft 385 kts 329°
2026-05-05 17:45 54.96959 38.26085 22423 ft 384 kts 329°
2026-05-05 17:45 54.99354 38.23963 22262 ft 383 kts 329°
2026-05-05 17:45 55.01703 38.21879 22122 ft 380 kts 329°
2026-05-05 17:45 55.04057 38.19789 21955 ft 376 kts 329°
2026-05-05 17:46 55.06377 38.17724 21786 ft 376 kts 329°
2026-05-05 17:46 55.08686 38.15666 21642 ft 376 kts 329°
2026-05-05 17:46 55.11028 38.13578 21487 ft 375 kts 329°
2026-05-05 17:46 55.13357 38.11610 21341 ft 375 kts 332°
2026-05-05 17:47 55.15750 38.09719 21184 ft 374 kts 332°
2026-05-05 17:47 55.18099 38.07817 21034 ft 374 kts 332°
2026-05-05 17:47 55.20460 38.05920 20881 ft 373 kts 332°
2026-05-05 17:47 55.22822 38.04039 20720 ft 372 kts 332°
2026-05-05 17:48 55.25156 38.02174 20582 ft 371 kts 332°
2026-05-05 17:48 55.27510 38.00282 20437 ft 369 kts 332°
2026-05-05 17:48 55.29823 37.98419 20307 ft 368 kts 332°
2026-05-05 17:48 55.32169 37.96532 20158 ft 368 kts 332°
2026-05-05 17:49 55.34500 37.94655 20010 ft 367 kts 332°
2026-05-05 17:49 55.36791 37.92806 19863 ft 367 kts 332°
2026-05-05 17:49 55.39215 37.91294 19730 ft 371 kts 343°
2026-05-05 17:49 55.41758 37.90676 19600 ft 373 kts 351°
2026-05-05 17:50 55.44358 37.90235 19456 ft 373 kts 351°
2026-05-05 17:50 55.46925 37.89814 19299 ft 373 kts 351°
2026-05-05 17:50 55.49518 37.89390 19175 ft 372 kts 351°
2026-05-05 17:50 55.52095 37.88961 19017 ft 371 kts 351°
2026-05-05 17:51 55.54643 37.88534 18881 ft 371 kts 351°
2026-05-05 17:51 55.57174 37.88112 18718 ft 370 kts 351°
2026-05-05 17:51 55.59711 37.87690 18577 ft 369 kts 351°
2026-05-05 17:51 55.62246 37.87267 18443 ft 369 kts 351°
2026-05-05 17:52 55.64821 37.86845 18306 ft 366 kts 352°
2026-05-05 17:52 55.67365 37.86782 18176 ft 368 kts 355°
2026-05-05 17:52 55.69910 37.86742 18011 ft 367 kts 355°
2026-05-05 17:52 55.72466 37.86965 17865 ft 371 kts
2026-05-05 17:53 55.74846 37.88733 17775 ft 380 kts 31°
2026-05-05 17:53 55.76760 37.92022 17673 ft 387 kts 53°
2026-05-05 17:53 55.77936 37.96288 17567 ft 390 kts 71°
2026-05-05 17:53 55.78517 38.01005 17442 ft 390 kts 82°
2026-05-05 17:54 55.78827 38.05800 17297 ft 390 kts 83°
2026-05-05 17:54 55.79217 38.10579 17151 ft 389 kts 78°
2026-05-05 17:54 55.79829 38.15206 17004 ft 388 kts 75°
2026-05-05 17:54 55.80500 38.19851 16839 ft 386 kts 76°
2026-05-05 17:55 55.81067 38.24457 16690 ft 382 kts 78°
2026-05-05 17:55 55.81601 38.29132 16535 ft 385 kts 77°
2026-05-05 17:55 55.82184 38.33738 16396 ft 384 kts 72°
2026-05-05 17:55 55.83320 38.38017 16255 ft 380 kts 55°
2026-05-05 17:56 55.84990 38.41585 16130 ft 375 kts 39°
2026-05-05 17:56 55.86932 38.44663 16044 ft 367 kts 38°
2026-05-05 17:56 55.88795 38.47581 16033 ft 349 kts 38°
2026-05-05 17:56 55.90591 38.50381 16028 ft 336 kts 35°
2026-05-05 17:57 55.92612 38.52173 16046 ft 326 kts
2026-05-05 17:57 55.94848 38.52412 16046 ft 316 kts 347°
2026-05-05 17:57 55.96887 38.51286 16050 ft 306 kts 327°
2026-05-05 17:57 55.98590 38.49081 16049 ft 301 kts 315°
2026-05-05 17:58 56.00183 38.46651 16044 ft 300 kts 315°
2026-05-05 17:58 56.01775 38.44199 16043 ft 300 kts 315°
2026-05-05 17:58 56.03307 38.41732 16040 ft 296 kts 306°
2026-05-05 17:58 56.04356 38.38592 16043 ft 292 kts 289°
2026-05-05 17:59 56.04834 38.35131 16053 ft 289 kts 274°
2026-05-05 17:59 56.04721 38.31541 16042 ft 289 kts 258°
2026-05-05 17:59 56.04303 38.28043 16045 ft 289 kts 258°
2026-05-05 17:59 56.03877 38.24557 16047 ft 289 kts 258°
2026-05-05 18:00 56.03444 38.21033 16047 ft 288 kts 258°
2026-05-05 18:00 56.03020 38.17565 16049 ft 288 kts 258°
2026-05-05 18:00 56.02590 38.14043 16043 ft 288 kts 258°
2026-05-05 18:00 56.02157 38.10514 16045 ft 289 kts 258°
2026-05-05 18:01 56.01729 38.07039 16040 ft 289 kts 258°
2026-05-05 18:01 56.01296 38.03528 16044 ft 288 kts 258°
2026-05-05 18:01 56.00862 38.00017 15979 ft 290 kts 258°
2026-05-05 18:01 56.00632 37.96499 15847 ft 284 kts 271°
2026-05-05 18:02 56.00883 37.92962 15833 ft 288 kts 279°
2026-05-05 18:02 56.01251 37.89452 15711 ft 291 kts 279°
2026-05-05 18:02 56.01621 37.85900 15418 ft 286 kts 279°
2026-05-05 18:02 56.01990 37.82449 15173 ft 284 kts 280°
2026-05-05 18:03 56.02380 37.79000 14936 ft 280 kts 276°
2026-05-05 18:03 56.02274 37.75562 14637 ft 276 kts 258°
2026-05-05 18:03 56.01749 37.72236 13503 ft 282 kts 256°
2026-05-05 18:03 56.01813 37.68767 12177 ft 286 kts 287°
2026-05-05 18:04 56.02917 37.65788 10976 ft 300 kts 315°
2026-05-05 18:04 56.04780 37.63976 9794 ft 311 kts 334°
2026-05-05 18:04 56.06875 37.62955 8485 ft 316 kts 343°
2026-05-05 18:04 56.09094 37.62702 7244 ft 323 kts
2026-05-05 18:05 56.11240 37.64074 6052 ft 332 kts 31°
2026-05-05 18:05 56.12787 37.67069 4968 ft 333 kts 64°
2026-05-05 18:05 56.13251 37.70843 4966 ft 289 kts 89°
2026-05-05 18:05 56.12981 37.74108 4967 ft 245 kts 114°
2026-05-05 18:06 56.12292 37.76627 4941 ft 213 kts 127°
2026-05-05 18:06 56.12020 37.77364 4935 ft 208 kts 130°
2026-05-05 18:06 56.10640 37.80806 4906 ft 202 kts 136°
2026-05-05 18:06 56.09561 37.82280 4839 ft 190 kts 163°
2026-05-05 18:07 56.08313 37.82658 4766 ft 177 kts 196°
2026-05-05 18:07 56.07191 37.81950 4750 ft 170 kts 213°
2026-05-05 18:07 56.06172 37.80886 4756 ft 169 kts 216°
2026-05-05 18:07 56.05159 37.79803 4773 ft 168 kts 216°
2026-05-05 18:08 56.04154 37.78734 4789 ft 168 kts 216°
2026-05-05 18:08 56.03192 37.77557 4771 ft 166 kts 226°
2026-05-05 18:08 56.02492 37.75952 4752 ft 163 kts 242°
2026-05-05 18:08 56.02047 37.74102 4748 ft 162 kts 253°
2026-05-05 18:09 56.01726 37.72190 4757 ft 162 kts 254°
2026-05-05 18:09 56.01422 37.70251 4757 ft 161 kts 254°
2026-05-05 18:09 56.01126 37.68275 4699 ft 170 kts 255°
2026-05-05 18:09 56.00816 37.66207 4196 ft 167 kts 255°
2026-05-05 18:10 56.00518 37.64210 3751 ft 167 kts 256°
2026-05-05 18:10 56.00319 37.62876 3453 ft 160 kts 256°
2026-05-05 18:10 55.99947 37.60388 2891 ft 157 kts 256°
2026-05-05 18:10 55.99763 37.59123 2623 ft 156 kts 257°
2026-05-05 18:11 55.99488 37.57269 2196 ft 157 kts 256°
2026-05-05 18:11 55.99210 37.55397 2022 ft 157 kts 256°
2026-05-05 18:11 55.98934 37.53489 1768 ft 158 kts 257°
2026-05-05 18:11 55.98654 37.51574 1505 ft 159 kts 256°
2026-05-05 18:12 55.98370 37.49673 1265 ft 160 kts 255°
2026-05-05 18:12 55.98090 37.47774 1070 ft 157 kts 255°
2026-05-05 18:12 55.97800 37.45893 823 ft 156 kts 254°
2026-05-05 18:12 55.97521 37.44015 653 ft 154 kts 253°
2026-05-05 18:13 55.97288 37.42466 645 ft 102 kts 256°
2026-05-05 18:13 55.97155 37.41553 647 ft 49 kts 254°
2026-05-05 18:13 55.97074 37.41037 644 ft 45 kts 256°
2026-05-05 18:13 55.96999 37.40500 644 ft 44 kts 256°
2026-05-05 18:14 55.96954 37.40200 647 ft 14 kts 252°
2026-05-05 18:14 55.96961 37.40091 648 ft 7 kts 306°
2026-05-05 18:14 55.96986 37.40060 646 ft 0 kts 327°
2026-05-05 18:14 55.96992 37.40054 646 ft 0 kts 328°
2026-05-05 18:15 55.96992 37.40053 646 ft 0 kts 327°
2026-05-05 18:15 55.96993 37.40046 646 ft 1 kts 307°
2026-05-05 18:15 55.96993 37.40039 646 ft 1 kts 287°
2026-05-05 18:15 55.96992 37.40033 646 ft 0 kts 271°
2026-05-05 18:16 55.96990 37.40029 646 ft 0 kts 258°
2026-05-05 18:16 55.96988 37.40025 646 ft 1 kts 244°
2026-05-05 18:16 55.96984 37.40022 646 ft 0 kts 226°
2026-05-05 18:16 55.96981 37.40021 646 ft 0 kts 211°
2026-05-05 18:17 55.96975 37.40023 646 ft 1 kts 183°
2026-05-05 18:17 55.96972 37.40027 646 ft 0 kts 166°